Regional Weather Roundup
Issued by NWS

Home | Current Version | Previous Version | Graphics & Text | Print | Product List | Glossary On
Versions: 1 2 3 4 5 6 7 8 9 10 11 12 13 14 15 16 17 18 19 20 21 22 23 24 25 26 27 28 29 30 31 32 33 34 35 36 37 38 39 40 41 42 43 44 45 46 47 48 49 50
000
ASUS45 KTFX 171919
RWRMT
MONTANA HOURLY WEATHER ROUNDUP
NATIONAL WEATHER SERVICE GREAT FALLS MT
119 PM MDT THU APR 17 2014

NOTE: "FAIR" INDICATES FEW OR NO CLOUDS BELOW 12000 FEET WITH NO
SIGNIFICANT WEATHER AND/OR OBSTRUCTIONS TO VISIBILITY.

* THESE STATIONS ARE NOT UNDER NWS QUALITY CONTROL. THEY DO NOT
   REPORT WEATHER SUCH AS PRECIPITATION OR FOG.

MTZ001>007-043-172000-
WEST OF THE DIVIDE
CITY           SKY/WX    TMP DP  RH WIND       PRES   REMARKS
KALISPELL      LGT RAIN  48  39  71 SE12      29.82F
MISSOULA       CLOUDY    54  34  47 W6        29.85F
BUTTE          CLOUDY    52  23  32 SW9       29.87F
MULLAN PASS    LGT SNOW  32  32 100 VRB5      29.82S VSB M1/4 WCI  27
* ESSEX        N/A       42  35  76 E4G11      N/A
* LINCOLN      N/A       54  33  45 S6G12      N/A
* LOOKOUT PASS N/A       39  37  93 E2G7       N/A
* PLAINS APT   CLOUDY    54  39  57 CALM      29.86F
* POLSON       N/A       49  36  61 S3         N/A
* RONAN APT    CLOUDY    54  36  51 S11G16     N/A
* SEELEY LAKE  N/A       47  33  58 W4         N/A
* THOMP F APT  CLOUDY    48  17  29 S9G21      N/A
* YAAK HILL    N/A       48  39  71 NW1        N/A
$$

MTZ008-052>055-172000-
SOUTHWEST MONTANA
CITY           SKY/WX    TMP DP  RH WIND       PRES   REMARKS
BOZEMAN        CLOUDY    57  21  25 W16       29.87F
DILLON         CLOUDY    55  21  27 SW18G23   29.87F
W YELLOWSTONE  N/A       48  22  36 SW7G19     N/A
* THREE FORKS  CLOUDY    55  30  39 N/A        N/A
* BOULDER HILL N/A       47  23  39 SW12G19    N/A
* MONIDA PASS  N/A       45  15  30 SE18G25    N/A
* RAYNOLDS PAS N/A       42  21  43 SE15       N/A
* WHITEHALL    N/A       55  21  27 SW17G27    N/A
* WISE RIVER   N/A       51  23  33 W10G15     N/A
$$

MTZ009>010-012-014-046-048-049-054-172000-
EAST SLOPES AND CENTRAL MONTANA
CITY           SKY/WX    TMP DP  RH WIND       PRES   REMARKS
CUT BANK       CLOUDY    45  36  71 SE6       29.79F
GREAT FALLS    CLOUDY    50  32  50 SE13      29.83F
HELENA         CLOUDY    55  27  34 CALM      29.83F
MALMSTROM AFB  LGT RAIN  50  32  50 S12       29.81F
* CONRAD       CLOUDY    50  36  59 SE6        N/A
* DEARBORN     N/A       54  26  34 S11        N/A
* EAST GLACIER N/A       42  33  71 W20G27     N/A
* MONARCH      N/A       43  24  47 SW12G18    N/A
* PENDROY      N/A       49  27  43 SE4G11     N/A
* ROGERS PASS  N/A       45  27  49 E10G20     N/A
* SAINT MARY   N/A       48  34  59 S6G13      N/A
* SWEET GRASS  N/A       41  41 100 S9         N/A
* WHITE SULPH  N/A       48  22  36 SW11G17    N/A
$$

MTZ011-013-016-021-035-040-045-047-050-051-172000-
NORTH CENTRAL MONTANA
CITY           SKY/WX    TMP DP  RH WIND       PRES   REMARKS
HAVRE          PTSUNNY   57  30  36 SW9G18    29.82F
LEWISTOWN      PTCLDY    54  32  43 SW15G22   29.86F
* CHINOOK      PTSUNNY   55  30  39 E7        29.84F
* FORT BENTON  CLOUDY    54  30  40 SW13G21   29.84F
* MALTA APT    PTCLDY    55  30  39 SE8       29.86F
* CHESTER      N/A       51  33  50 W6G13      N/A
* DENTON       N/A       55  27  34 W14G25     N/A
* GEYSER       N/A       50  26  39 W11G23     N/A
* JUDITH GAP   N/A       45  36  71 SE9G14     N/A
* LOMA         N/A       56  29  36 SW11G21    N/A
$$

MTZ017>020-022>027-061-062-172000-
NORTHEAST MONTANA
CITY           SKY/WX    TMP DP  RH WIND       PRES   REMARKS
GLASGOW        PTSUNNY   50  28  43 SE15G30   29.95F
GLENDIVE       PTSUNNY   48  32  54 E10       30.02F
JORDAN         PTCLDY    54  32  43 S16G21    29.91F
SIDNEY         PTSUNNY   46  28  50 SE16G22   30.08F
WOLF POINT     PTSUNNY   50  28  43 E15G22    30.01F
* BEAVER HILL  N/A       42  29  60 SE18G26    N/A
* CIRCLE       N/A       51  33  50 SE9G18     N/A
* LINDSAY DVD  N/A       45  32  60 SE16G24    N/A
* NAVAJO       N/A       43  24  47 SE19G26    N/A
* SACO         N/A       49  29  46 SE18G23    N/A
$$

MTZ028>042-056>058-172000-
SOUTHCENTRAL AND SOUTHEAST MONTANA
CITY           SKY/WX    TMP DP  RH WIND       PRES   REMARKS
BAKER          PTCLDY    46  34  63 SE22G30   30.04F
BILLINGS       SUNNY     55  32  42 VRB3      29.90F
LIVINGSTON     PTSUNNY   59  27  29 W20G25    29.87F
MILES CITY     PTCLDY    55  34  45 SE8       29.95F
* EKALAKA APT  PTCLDY    46  32  58 SE14G25   29.98F
* LAUREL APT   SUNNY     57  27  32 S9         N/A
* ROUNDUP APT  SUNNY     54  34  47 S13G20     N/A
* HYSHAM       N/A       56  27  33 SW7G12     N/A
* LAME DEER    N/A       52  29  41 S11G19     N/A
* REED POINT   N/A       58  32  37 E5         N/A
* ROSCOE HILL  N/A       50  14  24 E12G17     N/A
$$

REGIONAL REPORTS...DAKOTAS
CITY           SKY/WX    TMP DP  RH WIND       PRES   REMARKS
WILLISTON      PTSUNNY   43  27  53 SE17G26   30.12F
DICKINSON      CLOUDY    36  25  64 SE22      30.11F WCI  25
CROSBY         PTCLDY    37  23  57 SE23G28   30.13F WCI  26
TIOGA          CLOUDY    36  19  50 SE24      30.17F WCI  24
WATFORD CITY   PTSUNNY   41  25  53 SE20G25   30.09F
BISMARCK       CLOUDY    43  18  37 S12       30.24F
GRAND FORKS    SUNNY     39  10  30 VRB7      30.33F WCI  34
FARGO          SUNNY     43  14  31 N/A       30.31F
BUFFALO SD     SUNNY     45  30  56 SE21      30.00F
RAPID CITY     SUNNY     48  34  59 S21G28    30.06F
$$

REGIONAL REPORTS...WYOMING/IDAHO/WASHINGTON
CITY           SKY/WX    TMP DP  RH WIND       PRES   REMARKS
GILLETTE       PTSUNNY   54  30  40 S12G17    29.97F
SHERIDAN       SUNNY     55  30  39 SE9       29.95F
CODY           SUNNY     55  23  29 SE9G17    29.90F
YELLOWSTONE LA SUNNY     43  14  31 SW9       30.02F
SALMON         CLOUDY    59  25  27 SW14      29.85F
MULLAN PASS    LGT SNOW  32  32 100 VRB5      29.82S VSB M1/4 WCI  27
SAND POINT     LGT RAIN  45  45 100 CALM      29.83F
SPOKANE        LGT RAIN  48  45  89 SW13      29.82F
$$

REGIONAL REPORTS...ALBERTA
CITY           SKY/WX    TMP DP  RH WIND       PRES   REMARKS
CALGARY        FOG       32  30  92 E6        29.73F WCI  26
LETHBRIDGE     CLOUDY    50  37  61 S20       29.75F
MEDICINE HAT   PTSUNNY   54  34  47 S15       29.78F
EDMONTON       LGT SNOW  28  25  89 E15       29.85S VSB 2 1/2 WCI  16
WATERTON GATE  N/A       45  34  65 SW15G21    N/A
CARDSTON       N/A       48  39  71 S8         N/A
MILK RIVER     N/A       46  34  63 S12        N/A
$$

REGIONAL REPORTS...SASKATCHEWAN
CITY           SKY/WX    TMP DP  RH WIND       PRES   REMARKS
SWIFT CURRENT  PTSUNNY   41  28  60 SE23G33   29.89F
MOOSE JAW      CLOUDY    39  19  45 SE18G24   30.06F WCI  30
REGINA         CLOUDY    37  19  48 SE24G33   30.11F WCI  26
VAL MARIE      N/A       45  28  51 S18G24     N/A
ASSINIBOIA     N/A       39  25  57 SE15G24    N/A   WCI  31
CORONACH       N/A       46  23  40 SE18G26    N/A

$$




USA.gov is the U.S. government's official web portal to all federal, state and local government web resources and services.